Location: ????????
(54.6123°N, 39.2099°E)
Time: 01:26:25
(UTC+00:00)

Cosmos 2278 - Pass Details

Date: 19 May 2025
Orbit: 839 x 850 km, 71.1° (Epoch: 13 June)

Event Time Altitude Azimuth Distance (km) Brightness Sun altitude
Rises 19:39:59 0° 326° (NNW) 3,408 8.8 -12.4°
Reaches altitude 10° 19:42:28 10° 330° (NNW) 2,469 7.6 -12.6°
Maximum altitude 19:48:06 63° 52° (NE) 935 4.0 -12.9°
Enters shadow 19:52:48 15° 132° (SE) 2,130 5.3 -13.1°
